AO-07 1 07530U 74089B 20310.88567903 -.00000037 00000-0 55021-4 0 9993 2 07530 101.8212 279.9317 0012494 091.1696 323.0821 12.53645845103716 UO-11 1 14781U 84021B 20310.76112386 .00000102 00000-0 18515-4 0 9993 2 14781 097.5903 315.7066 0009973 096.0694 264.1657 14.83206365952775 LO-19 1 20442U 90005G 20310.76926401 .00000015 00000-0 21811-4 0 9990 2 20442 098.7093 258.5977 0012829 098.1094 262.1546 14.32965456608797 HUBBLE 1 20580U 90037B 20310.79765554 .00000548 00000-0 22315-4 0 9992 2 20580 28.4692 104.7535 0002659 169.9380 323.8726 15.09466135477437 MET-2/21 1 22782U 93055A 20310.72240757 .00000024 00000-0 87121-5 0 9993 2 22782 82.5458 121.4846 0022072 196.0788 174.3207 13.83829740372857 AO-27 1 22825U 93061C 20310.77230459 -.00000011 00000-0 13857-4 0 9992 2 22825 098.9262 316.8028 0007898 332.3082 027.7678 14.30096558414016 IO-26 1 22826U 93061D 20310.58564404 -.00000006 00000-0 15680-4 0 9992 2 22826 098.9202 316.5426 0008251 319.3995 040.6570 14.30433421414224 FO-29 1 24278U 96046B 20310.77032081 .00000005 00000-0 41260-4 0 9994 2 24278 098.5890 042.1404 0350529 009.1400 351.5904 13.53099913195990 NOAA-15 1 25338U 98030A 20310.81999574 .00000011 00000-0 22989-4 0 9995 2 25338 98.7064 335.0806 0009951 206.5169 153.5502 14.25996968169371 GO-32 1 25397U 98043D 20310.77781756 .00000007 00000-0 22463-4 0 9992 2 25397 098.7424 251.2787 0001880 044.7430 315.3900 14.23693783159667 ISS 1 25544U 98067A 20310.93143519 .00001418 00000-0 33452-4 0 9996 2 25544 51.6474 7.1012 0001952 85.6399 266.9839 15.49387714253986 NO-44 1 26931U 01043C 20310.81151914 -.00000015 00000-0 26095-4 0 9998 2 26931 67.0496 137.6007 0006833 275.7248 84.3074 14.30593346997362 SO-50 1 27607U 02058C 20310.60084827 .00000027 00000-0 24284-4 0 9991 2 27607 064.5550 302.8182 0032197 125.7375 234.6729 14.75674375961542 CO-55 1 27844U 03031E 20310.76688687 .00000054 00000-0 43832-4 0 9997 2 27844 098.6829 316.3750 0010048 012.7565 347.3865 14.22265597900180 CO-57 1 27848U 03031J 20310.76437108 .00000040 00000-0 37851-4 0 9990 2 27848 098.6892 316.9390 0010159 025.1839 334.9832 14.21848927900027 RS-22 1 27939U 03042A 20310.85932506 .00000158 00000-0 36909-4 0 9998 2 27939 98.1119 83.9731 0011648 266.4801 93.5077 14.66901701914740 NOAA-18 1 28654U 05018A 20310.76010084 .00000083 00000-0 69450-4 0 9990 2 28654 99.0270 8.3931 0014229 189.4269 170.6637 14.12552774796959 CO-58 1 28895U 05043F 20310.63855468 .00000196 00000-0 46431-4 0 9993 2 28895 098.0302 083.2096 0016594 191.4361 168.6467 14.63818552801262 Falconsat-3 1 30776U 07006E 20310.79276205 .00004399 00000-0 11396-3 0 9998 2 30776 035.4343 095.3125 0002437 006.9330 353.1430 15.38548148758612 CO-65 1 32785U 08021C 20310.83622350 .00000337 00000-0 41841-4 0 9996 2 32785 097.5874 292.7390 0013771 030.3550 329.8462 14.88545634678906 AAUSAT2 1 32788U 08021F 20310.73231634 .00000717 00000-0 70110-4 0 9992 2 32788 097.4958 308.9931 0010426 305.8536 054.1717 14.95209523680423 DO-64 1 32789U 08021G 20310.68122985 .00001408 00000-0 95154-4 0 9998 2 32789 097.4037 348.4602 0011863 183.9682 176.1454 15.08073938683092 CO-66 1 32791U 08021J 20310.52454881 .00000603 00000-0 66068-4 0 9995 2 32791 97.5519 298.5293 0013214 359.2476 0.8721 14.91153986679484 RS-30 1 32953U 08025A 20310.96732023 .00000037 00000-0 19437-3 0 9992 2 32953 082.5054 189.9112 0019732 102.9895 257.3385 12.43098689565217 PRISM 1 33493U 09002B 20310.81260715 .00001473 00000-0 13267-3 0 9996 2 33493 098.1593 257.0693 0013709 312.4629 047.5432 14.97219769640851 NOAA-19 1 33591U 09005A 20310.77430587 -.00000003 00000-0 23946-4 0 9994 2 33591 99.1958 319.8038 0014596 42.7589 317.4715 14.12437509605348 TISAT-1 1 36799U 10035E 20310.46334541 .00000461 00000-0 52171-4 0 9990 2 36799 098.2024 126.2625 0011341 223.8672 136.1645 14.91470133559946 JUGNU 1 37839U 11058B 20310.89718561 .00000303 00000-0 19518-4 0 9990 2 37839 019.9598 144.9833 0018947 147.7219 240.7634 14.12693675468812 SRMSAT 1 37841U 11058D 20310.82898166 .00000299 00000-0 19080-4 0 9994 2 37841 019.9711 212.6547 0011755 357.5384 053.0474 14.10677878468127 AO-71 1 37854U 11061E 20310.74017773 .00001239 00000-0 69266-4 0 9996 2 37854 101.7148 115.0319 0157221 1.5339 358.6325 15.07668009493213 HRBE 1 37855U 11061F 20310.71100711 .00001155 00000-0 64074-4 0 9998 2 37855 101.7277 112.0716 0169756 15.5937 345.0414 15.06702914492941 HORYU-2 1 38340U 12025D 20310.63425473 .00000232 00000-0 41610-4 0 9991 2 38340 098.2638 007.4691 0010446 314.6300 045.4056 14.75912798445375 RS-40 1 38735U 12041C 20310.83781273 .00000003 00000-0 -51989-4 0 9999 2 38735 082.4738 272.4924 0016007 211.2762 148.7366 12.42580588375413 BEESAT-3 1 39135U 13015F 20310.85616929 .00001327 00000-0 73354-4 0 9992 2 39135 064.8660 204.6482 0024814 219.3888 140.5435 15.18491318416685 BEESAT-2 1 39136U 13015G 20310.43323599 .00001422 00000-0 78732-4 0 9996 2 39136 064.8762 211.5072 0034716 265.5282 094.1878 15.17899808416516 ZACUBE-1 1 39417U 13066B 20310.47567492 .00000255 00000-0 38130-4 0 9991 2 39417 097.5744 300.7212 0058869 174.0404 186.1523 14.81346408375913 TRITON-1 1 39427U 13066M 20310.84080011 .00000401 00000-0 71712-4 0 9996 2 39427 97.7450 264.0471 0113381 346.6072 13.2131 14.68080047372593 GOMX-1 1 39430U 13066Q 20310.83569941 .00000294 00000-0 61474-4 0 9997 2 39430 97.7997 240.8789 0152112 99.0273 262.8198 14.59459284370422 LO-74 1 39440U 13066AA 20310.69610173 .00000264 00000-0 43674-4 0 9995 2 39440 097.6478 285.5125 0078691 241.2506 118.0782 14.76084574373413 AO-73 1 39444U 13066AE 20310.72922997 .00000313 00000-0 44456-4 0 9997 2 39444 097.5674 303.2614 0058219 164.7287 195.5701 14.82214641374299 SPROUT 1 39770U 14029E 20310.84897114 .00000952 00000-0 10988-3 0 9995 2 39770 97.9054 56.6052 0008343 217.1199 142.9423 14.87948318350088 DUCHIFAT-1 1 40021U 14033M 20310.75171954 .00000613 00000-0 67776-4 0 9990 2 40021 097.9506 242.9030 0012681 175.3790 184.7547 14.91028943346948 NANOSATCBR1 1 40024U 14033Q 20310.78696385 .00000383 00000-0 45447-4 0 9991 2 40024 097.9330 238.8429 0011934 179.9306 180.1915 14.90179531346280 DTUSAT-2 1 40030U 14033W 20310.76414390 .00000335 00000-0 41796-4 0 9990 2 40030 97.9045 232.2119 0011558 183.9061 176.2067 14.88794895346545 EO-80 1 40032U 14033Y 20310.78774503 .00000374 00000-0 46004-4 0 9999 2 40032 097.9051 232.2390 0011489 184.6465 175.4647 14.88747195346012 ANTELSAT 1 40034U 14033AA 20310.84387111 .00000262 00000-0 46085-4 0 9998 2 40034 097.6964 159.6444 0057197 261.7323 097.7398 14.74324318342717 VELOX-1 1 40057U 14034E 20310.79817073 .00000437 00000-0 68289-4 0 9997 2 40057 98.2996 91.8122 0011821 56.9581 303.2764 14.77964782342516 DAURIA DX 1 1 40071U 14037C 20310.82078760 .00000149 00000-0 26646-4 0 9993 2 40071 98.4607 137.0868 0009438 49.0089 311.1940 14.81407278342184 HODOYOSHI-1 1 40299U 14070B 20310.74638663 .00000992 00000-0 43422-4 0 9994 2 40299 97.3118 24.1274 0014487 61.4826 55.9331 15.24251228333339 CHUBUSAT-1 1 40300U 14070C 20310.77858755 .00001002 00000-0 45679-4 0 9995 2 40300 97.2724 15.6120 0021237 76.6745 39.2412 15.22707027333019 QSAT-EOS 1 40301U 14070D 20310.79461969 .00002735 00000-0 10363-3 0 9990 2 40301 97.2806 21.9493 0026094 50.1257 69.2418 15.27433049333503 FIREBIRD FU3 1 40377U 15003B 20310.70129624 .00003536 00000-0 13607-3 0 9994 2 40377 099.0851 039.7651 0121940 201.7317 157.8715 15.20648978318763 FIREBIRD FU4 1 40378U 15003C 20310.74966195 .00003870 00000-0 14827-3 0 9997 2 40378 099.0854 039.9325 0122120 201.4140 158.1957 15.20671889318780 GRIFEX 1 40379U 15003D 20310.73784397 .00002095 00000-0 90172-4 0 9995 2 40379 099.0887 030.9775 0130973 229.3500 129.6283 15.16820119318266 NO-84 1 40654U 15025D 20309.50741588 .00025168 00000-0 25870-3 0 879 2 40654 54.9862 13.5501 0105189 191.0305 168.8169 15.58059880190821 DEORBITSAIL 1 40719U 15032E 20310.74639636 .00000495 00000-0 77019-4 0 9998 2 40719 097.8507 195.7676 0017469 108.9621 251.3485 14.77113087286951 NUDT-PHONESAT 1 40900U 15049B 20310.85504809 .00003247 00000-0 13394-3 0 9996 2 40900 97.4288 320.6216 0011741 199.5078 282.8791 15.24715277284738 XW-2A 1 40903U 15049E 20310.78875307 .00003131 00000-0 71159-4 0 9991 2 40903 97.2701 359.7463 0014606 107.2993 4.4684 15.43677857288275 XW-2C 1 40906U 15049H 20310.81912215 .00000961 00000-0 53064-4 0 9991 2 40906 097.4811 310.1357 0013208 240.7829 242.9270 15.16255979283679 XW-2D 1 40907U 15049J 20310.78329918 .00001150 00000-0 62388-4 0 9990 2 40907 97.4795 309.8318 0012601 237.6239 208.4120 15.16513109283694 LILACSAT-2 1 40908U 15049K 20310.81119478 .00000680 00000-0 40870-4 0 9992 2 40908 97.4972 308.0189 0014212 251.5857 231.9377 15.14152582283383 XW-2E 1 40909U 15049L 20310.82650583 .00001554 00000-0 78052-4 0 9995 2 40909 97.4655 313.5782 0012123 224.8991 258.7916 15.18730286283982 XW-2F 1 40910U 15049M 20310.82285015 .00001541 00000-0 78499-4 0 9992 2 40910 97.4709 312.6541 0013340 224.2680 259.7190 15.18237394283783 XW-2B 1 40911U 15049N 20310.79033213 .00000954 00000-0 52455-4 0 9991 2 40911 97.4805 310.5374 0012465 238.9614 294.6774 15.16434971283580 DCBB 1 40912U 15049P 20310.79976126 .00001736 00000-0 82061-4 0 9996 2 40912 097.4483 316.9041 0013987 198.8609 334.6929 15.20668443284195 TW-1C 1 40926U 15051B 20310.82102161 .00051760 00000-0 36204-3 0 9997 2 40926 97.0629 4.0319 0003155 258.3068 162.4097 15.74116328289195 TW-1A 1 40928U 15051D 20310.85964230 .00004598 00000-0 10439-3 0 9994 2 40928 97.0983 335.2315 0011302 40.4147 133.0141 15.43466394287173 IO-86 1 40931U 15052B 20308.82274752 .00000717 00000-0 10724-4 0 9993 2 40931 5.9980 61.5072 0013572 88.6692 271.5562 14.76648239275897 LQSat 1 40958U 15057A 20310.73954161 .00000025 00000-0 11398-4 0 9999 2 40958 097.8363 009.3891 0019286 058.5328 301.7762 14.73137024273315 ATHENOXAT-1 1 41168U 15077C 20310.65284222 .00002507 00000-0 94661-4 0 9991 2 41168 14.9923 105.2247 0012231 296.6178 153.1700 15.14721504270780 ChubuSat-2 1 41338U 16012B 20310.87875934 .00000427 00000-0 26418-4 0 9994 2 41338 031.0020 167.4085 0013514 077.8545 282.3604 15.00359891258997 ChubuSat-3 1 41339U 16012C 20310.79160062 .00000469 00000-0 29564-4 0 9996 2 41339 31.0119 165.4321 0013443 83.4811 276.7355 15.00520154258989 Horyu-4 1 41340U 16012D 20310.82679664 .00000651 00000-0 42338-4 0 9992 2 41340 31.0038 151.4101 0013658 112.5487 247.6595 15.01608115259140 OUFTI-1 1 41458U 16025C 20310.83881223 .00001821 00000-0 92705-4 0 9996 2 41458 098.1186 069.0428 0163275 093.5578 268.4337 15.07387219248771 e-st@r-II 1 41459U 16025D 20310.79411144 .00003030 00000-0 15261-3 0 9998 2 41459 98.1188 68.2896 0164832 96.1380 265.8624 15.06917712248725 AAUSAT4 1 41460U 16025E 20310.77368739 .00003215 00000-0 15656-3 0 9992 2 41460 98.1150 71.1264 0152802 83.1945 278.6597 15.09432321248952 LO-87 1 41557U 16033B 20310.83601478 .00002129 00000-0 79615-4 0 9994 2 41557 97.4017 40.1516 0012056 312.4380 163.1049 15.28391760247362 NuSat2 1 41558U 16033C 20310.81288612 .00002381 00000-0 83444-4 0 9999 2 41558 97.4083 42.9757 0011210 308.3328 168.0260 15.30416969247507 Lapan A3 1 41603U 16040E 20310.76281602 .00000144 00000-0 97695-5 0 9993 2 41603 97.2909 359.7408 0015088 69.6035 40.3565 15.19894393242608 Swayam 1 41607U 16040J 20310.72208901 .00001941 00000-0 81210-4 0 9995 2 41607 97.3007 6.6616 0014254 53.7366 306.5187 15.24667798242943 Pratham 1 41783U 16059A 20310.69836543 .00000071 00000-0 22907-4 0 9996 2 41783 097.9988 002.0570 0032573 229.8276 130.0074 14.63084107219534 AlSat 1N 1 41789U 16059G 20310.79865094 .00000148 00000-0 36811-4 0 9990 2 41789 98.0033 5.3082 0027541 215.3162 144.6216 14.64355441219712 ScatSat 1 41790U 16059H 20310.90934405 .00000035 00000-0 20359-4 0 9993 2 41790 098.4005 347.6320 0004641 190.3353 169.7739 14.50792451217733 TY-1 1 41844U 16066D 20310.84625091 .00001289 00000-0 54270-4 0 9993 2 41844 97.4032 317.4541 0014147 200.2926 283.6162 15.25103684221818 Pegasus-1 1 41846U 16066F 20310.69712111 .00000387 00000-0 68390-4 0 9994 2 41846 098.6445 002.1158 0366913 172.3417 188.3592 14.37853277209263 CAS-2T 1 41847U 16066G 20310.72659995 .00000132 00000-0 29955-4 0 9991 2 41847 098.6364 002.5421 0365906 167.7073 193.3348 14.38106948209721 EO-88 1 42017U 17008BX 20310.66436195 .00002149 00000-0 83975-4 0 9998 2 42017 97.3452 16.0847 0006382 167.7424 192.3971 15.26938719207093 CAS-4B 1 42759U 17034B 20310.83922454 .00000590 00000-0 49149-4 0 9990 2 42759 43.0196 330.1875 0010201 209.6233 138.7540 15.09935763187336 CAS-4A 1 42761U 17034D 20310.80940199 .00000561 00000-0 47307-4 0 9998 2 42761 43.0199 329.5553 0010698 210.4023 319.0556 15.10014987187333 UCLSat 1 42765U 17036A 20310.68252765 .00001762 00000-0 75846-4 0 9998 2 42765 097.2836 001.0209 0009632 244.6114 115.4127 15.23874306188080 NIUSat 1 42766U 17036B 20310.70468381 .00001309 00000-0 60207-4 0 9997 2 42766 097.2830 358.1208 0013846 240.3913 119.5944 15.21988459187176 LituanicaSAT 2 1 42768U 17036D 20310.73084791 .00002620 00000-0 10871-3 0 9999 2 42768 097.2897 001.2877 0013087 233.0596 126.9444 15.24653001187365 Aalto 1 1 42775U 17036L 20310.67894949 .00001070 00000-0 49695-4 0 9999 2 42775 097.2809 358.4234 0012296 239.3562 120.6463 15.22065372187158 URSA MAIOR 1 42776U 17036M 20310.71619480 .00001179 00000-0 54127-4 0 9996 2 42776 097.2821 358.8074 0012088 238.6667 121.3387 15.22271245187179 Max Valier Sat 1 42778U 17036P 20310.75767095 .00001285 00000-0 57689-4 0 9992 2 42778 097.2882 000.3711 0010661 240.8772 119.1398 15.22887462187230 Pegasus 1 42784U 17036V 20310.67164834 .00001586 00000-0 69205-4 0 9993 2 42784 097.2841 000.6416 0010207 246.2842 113.7325 15.23540014187275 NUDATSat 1 42787U 17036Y 20310.92894570 .00002865 00000-0 11748-3 0 9990 2 42787 097.2882 002.6324 0009336 241.0592 118.9709 15.25019363187250 SUCHAI 1 1 42788U 17036Z 20310.70814853 .00001796 00000-0 76615-4 0 9990 2 42788 097.2849 001.4029 0009721 243.1496 116.8748 15.24152469187396 SKCUBE 1 42789U 17036AA 20310.70427566 .00001765 00000-0 75753-4 0 9990 2 42789 097.2845 001.2053 0009633 243.8469 116.1778 15.23966882187305 VZLUSAT 1 1 42790U 17036AB 20310.78833410 .00002184 00000-0 90274-4 0 9990 2 42790 097.2871 002.4877 0009159 239.4427 120.5907 15.24993563187389 VENTA 1 1 42791U 17036AC 20310.68046429 .00001783 00000-0 76538-4 0 9997 2 42791 097.2842 001.2157 0009304 244.6941 115.3334 15.23940838187299 Robusta 1B 1 42792U 17036AD 20310.70551747 .00001816 00000-0 77399-4 0 9998 2 42792 097.2847 001.5037 0009207 244.0053 116.0237 15.24172791187336 D-SAT 1 42794U 17036AF 20310.81488269 .00000405 00000-0 40564-4 0 9997 2 42794 097.4817 336.3860 0124520 252.8777 105.8775 14.91353668183725 TechnoSat 1 42829U 17042E 20310.67355956 .00000340 00000-0 39516-4 0 9996 2 42829 97.4970 185.6504 0014359 168.0907 192.0654 14.91154338180336 QIKCOM-1 1 42983U 98067NF 20310.43261029 .00005836 00000-0 69126-4 0 9999 2 42983 51.6383 314.2465 0002672 221.0261 139.0533 15.62878351172325 AO-91 1 43017U 17073E 20310.71874717 .00001111 00000-0 91979-4 0 9994 2 43017 097.7152 217.4516 0255388 310.2562 047.6562 14.79120250160046 EcAMSat 1 43019U 98067NG 20310.66843754 .00014201 00000-0 12528-3 0 9995 2 43019 51.6406 293.4112 0002220 203.1084 156.9813 15.68998910254940 PICSAT 1 43132U 18004X 20310.75546123 .00001849 00000-0 77437-4 0 9999 2 43132 97.4342 21.1579 0007806 277.6622 82.3729 15.24802576156588 AO-92 1 43137U 18004AC 20310.75878164 .00001499 00000-0 64025-4 0 9997 2 43137 97.4328 20.8807 0007468 281.0218 79.0180 15.24420938156561 TianYi 2 1 43155U 18008A 20310.79771007 .00001507 00000-0 91528-4 0 9991 2 43155 97.4324 16.1902 0018128 25.7228 69.5606 15.11849930154276 Zhou Enlai 1 43156U 18008B 20310.80608899 .00001510 00000-0 92943-4 0 9998 2 43156 97.4372 16.0376 0015364 25.5931 84.0707 15.11415662154222 TianYi 6 1 43158U 18008D 20310.73714792 .00001341 00000-0 84091-4 0 9999 2 43158 97.4309 14.8504 0014346 23.9571 93.3304 15.10926631154154 S-Net D 1 43186U 18014G 20310.70028317 .00000777 00000-0 72646-4 0 9990 2 43186 097.6851 216.1649 0012677 108.3355 251.9247 14.96882381150823 S-Net B 1 43187U 18014H 20310.63328803 .00000780 00000-0 72939-4 0 9995 2 43187 097.6848 216.0732 0012669 108.5512 251.7087 14.96881864150814 S-Net A 1 43188U 18014J 20310.70001846 .00000782 00000-0 73131-4 0 9996 2 43188 097.6851 216.1739 0012649 108.3992 251.8606 14.96881773150823 S-Net C 1 43189U 18014K 20310.70050137 .00000759 00000-0 71120-4 0 9994 2 43189 97.6848 216.1334 0012633 108.2488 252.0109 14.96881229149378 FMN 1 1 43192U 18015A 20310.78519464 .00003581 00000-0 14086-3 0 9993 2 43192 97.4613 79.8019 0014515 315.3781 150.6474 15.26224917153453 Shaonian Xing 1 43199U 18015H 20310.84419412 .00002618 00000-0 10372-3 0 9993 2 43199 97.4412 77.7492 0015823 325.7532 185.3783 15.26220950153520 UBAKUSAT 1 43467U 98067NQ 20310.76261842 .00103021 00000-0 35964-3 0 9993 2 43467 51.6316 269.4170 0003354 101.4262 258.7120 15.88506697142454 EQUISat 1 43552U 98067PA 20310.73740549 .00107223 00000-0 39256-3 0 9997 2 43552 51.6281 277.5868 0001745 62.1056 298.0125 15.87535458132536 UiTMSat 1 1 43589U 98067PD 20310.82178893 .00367100 70681-4 59519-3 0 9996 2 43589 051.6277 268.8497 0004011 105.8447 254.3006 16.02841161128391 Maya 1 1 43590U 98067PE 20310.18958824 .00346360 63607-4 57770-3 0 9999 2 43590 51.6216 272.0468 0004219 104.6265 255.5214 16.02369695128229 Bhutan 1 1 43591U 98067PF 20310.25852108 .00372071 73121-4 57399-3 0 9993 2 43591 51.6273 271.1760 0004239 106.9443 253.2033 16.03668128128243 SiriusSat 1 1 43595U 98067PG 20310.47886286 .00071195 13036-4 23108-3 0 9998 2 43595 51.6316 280.1119 0002485 75.1872 284.9507 15.90971420127329 SiriusSat 2 1 43596U 98067PH 20310.48641665 .00136188 17974-4 43069-3 0 9997 2 43596 051.6230 280.9844 0003887 085.7312 274.4339 15.91029190127316 SurfSat 1 43614U 18070B 20310.71618570 .00003730 00000-0 93382-4 0 9997 2 43614 093.0291 213.0943 0016467 141.7532 218.4895 15.39999707120215 CP-7 DAVE 1 43615U 18070C 20310.69767969 .00003521 00000-0 88708-4 0 9996 2 43615 093.0292 213.0675 0016626 141.6120 218.6321 15.39808191120209 ELFIN-B 1 43616U 18070D 20310.66523465 .00005329 00000-0 12666-3 0 9992 2 43616 093.0251 213.0514 0016819 141.9231 218.3217 15.41542053120269 ELFIN-A 1 43617U 18070E 20310.67835783 .00005359 00000-0 12632-3 0 9999 2 43617 093.0307 213.6904 0016412 138.5214 221.7291 15.41802032120270 STARS-Me Mother 1 43640U 98067PQ 20310.49984565 .00022281 00000-0 18317-3 0 9991 2 43640 051.6342 310.7135 0001817 182.0112 178.0879 15.70338426118854 CubeBel 1 1 43666U 18083E 20310.79789948 .00001591 00000-0 80207-4 0 9999 2 43666 097.4788 335.8131 0013545 223.6080 251.6304 15.18544742112065 Changshagaoxin 1 43669U 18083H 20310.82965065 .00001092 00000-0 57769-4 0 9995 2 43669 97.4672 333.6048 0009793 214.8256 318.5430 15.17513258111968 Ten-Koh 1 43677U 18084G 20310.82206949 .00000254 00000-0 31991-4 0 9992 2 43677 097.8982 067.6722 0017109 055.3234 304.9593 14.90339329109996 PO-101 1 43678U 18084H 20310.81446236 -.00000193 00000-0 -13467-4 0 9999 2 43678 97.9006 69.3456 0011311 72.3467 287.8997 14.91663042110097 IRVINE 01 1 43693U 18088D 20310.54323395 .00002949 00000-0 12114-3 0 9996 2 43693 085.0345 343.5837 0019498 127.3078 232.9945 15.23553807110324 QO-100 1 43700U 18090A 20310.30049264 .00000156 00000-0 00000-0 0 9998 2 43700 000.0133 267.7745 0002132 342.1473 289.0881 01.00273445007125 Reaktor Hello World 1 43743U 18096AA 20310.65922451 .00001722 00000-0 66024-4 0 9999 2 43743 097.4096 023.7527 0017425 354.2846 005.8192 15.27772221107958 MinXSS-2 1 43758U 18099A 20310.62270390 .00000837 00000-0 80048-4 0 9991 2 43758 097.6939 020.1689 0017118 079.2889 281.0258 14.95779026105056 AO-95 1 43770U 18099N 20310.46270077 .00000453 00000-0 46488-4 0 9993 2 43770 097.6927 019.2903 0015993 087.4126 272.8925 14.95081859104989 RANGE-B 1 43772U 18099Q 20310.66464521 .00000642 00000-0 63336-4 0 9997 2 43772 97.6998 20.1663 0015438 75.2390 285.0541 14.95304153105015 RANGE-A 1 43773U 18099R 20310.65721014 .00000204 00000-0 23800-4 0 9996 2 43773 097.6864 019.0098 0014895 075.0109 285.2759 14.95036492105009 MOVE-II 1 43780U 18099Y 20310.70534493 .00000340 00000-0 35730-4 0 9999 2 43780 097.6937 019.8416 0014914 083.9380 276.3540 14.95549494105023 SNUSat 2 1 43782U 18099AA 20310.66673213 .00000538 00000-0 53884-4 0 9999 2 43782 097.6923 019.7528 0014077 074.7484 285.5292 14.95342103105020 SnugLite 1 43784U 18099AC 20310.62549980 .00000559 00000-0 55564-4 0 9990 2 43784 097.6890 019.4989 0016629 081.2943 279.0161 14.95452374105037 ITASat 1 1 43786U 18099AE 20310.62895942 .00000400 00000-0 41301-4 0 9993 2 43786 097.6946 019.9737 0016730 080.4769 279.8342 14.95411910105037 EAGLET 1 1 43790U 18099AJ 20310.65199097 -.00000016 00000-0 37050-5 0 9990 2 43790 097.6933 020.3137 0014841 084.2475 276.0438 14.95790004104752 ESEO 1 43792U 18099AL 20310.67434845 .00000499 00000-0 49993-4 0 9999 2 43792 097.6901 020.0837 0014805 081.8832 278.4068 14.95638569104812 CSIM 1 43793U 18099AM 20310.67180809 .00000977 00000-0 91650-4 0 9996 2 43793 097.6908 020.1709 0014307 080.0274 280.2561 14.96200952104807 Astrocast 0.1 1 43798U 18099AS 20310.76056909 .00000608 00000-0 59326-4 0 9999 2 43798 097.6936 020.5493 0013888 066.1050 294.1625 14.95945028105071 JO-97 1 43803U 18099AX 20310.62605283 .00000602 00000-0 59238-4 0 9992 2 43803 097.6907 019.7583 0016701 080.7919 279.5190 14.95607764105031 Suomi 100 1 43804U 18099AY 20310.62813094 .00000479 00000-0 48238-4 0 9994 2 43804 097.6903 019.7421 0016763 080.7673 279.5443 14.95591845105048 Al Farabi 2 1 43805U 18099AZ 20310.79069624 .00000114 00000-0 15343-4 0 9992 2 43805 097.6900 020.0289 0016507 080.1237 280.1833 14.95732601105070 PWSat 2 1 43814U 18099BJ 20310.51498580 .00051022 00000-0 22288-2 0 9997 2 43814 097.7929 034.9597 0002198 123.6440 236.5005 15.21928083105097 CHOMPTT 1 43855U 18104G 20310.82411793 .00001687 00000-0 69387-4 0 9999 2 43855 085.0367 081.6479 0015366 248.6748 111.2854 15.23233310105046 ISAT 1 43879U 18111D 20310.93566818 -.00000033 00000-0 21621-5 0 9999 2 43879 097.6912 216.0090 0013795 126.0845 234.1660 14.96344740099626 UWE-4 1 43880U 18111E 20310.69222581 .00001029 00000-0 95319-4 0 9999 2 43880 097.6941 216.1180 0013538 128.3828 231.8612 14.96594130101616 Sparrow 1 43881U 18111F 20310.67048869 .00000347 00000-0 35459-4 0 9994 2 43881 097.6941 216.1896 0013415 127.1322 233.1127 14.96635372101611 Lume 1 1 43908U 18111AJ 20310.69790702 .00001751 00000-0 71837-4 0 9996 2 43908 97.2506 206.3685 0021407 8.6219 351.5383 15.25348336103557 FO-98 1 43933U 19003B 20310.65781569 .00000969 00000-0 44738-4 0 9992 2 43933 097.2130 354.8669 0019475 103.3448 256.9962 15.22322804100016 FO-99 1 43937U 19003F 20310.67487324 .00001802 00000-0 74918-4 0 9990 2 43937 97.2093 356.5394 0025547 85.7700 274.6457 15.24744786100153 Delphini 1 1 44030U 98067PW 20310.27631801 .00041820 00000-0 29567-3 0 9992 2 44030 051.6318 316.6978 0001525 338.0867 022.0066 15.73571504100628 MYSat 1 1 44045U 18092F 20310.60661091 .00003880 00000-0 11416-3 0 9997 2 44045 51.6393 76.5505 0011493 114.4302 245.7882 15.37510091 96998 AstroCast 0.2 1 44083U 19018F 20310.66962973 .00001025 00000-0 48089-4 0 9993 2 44083 97.4049 9.6481 0014129 43.0811 317.1528 15.21825663 88851 AISTechSat 3 1 44103U 19018AB 20310.74005920 .00001307 00000-0 57762-4 0 9996 2 44103 97.3912 9.9759 0014669 54.7352 63.6990 15.23407070 88947 AISat 1 1 44104U 19018AC 20310.65718347 .00001256 00000-0 41954-4 0 9990 2 44104 97.4505 21.1278 0059299 71.8930 288.8757 15.31328657 89416 Raavana-1 1 44329U 98067QE 20310.82932304 .00017574 00000-0 20770-3 0 9992 2 44329 051.6392 343.9067 0004229 159.2469 200.8697 15.61385479079068 Uguisu 1 44330U 98067QF 20310.46705909 .00015730 00000-0 18760-3 0 9991 2 44330 051.6369 345.9490 0004207 157.5967 202.5211 15.61244472078984 NepaliSat-1 1 44331U 98067QG 20310.50044010 .00017133 00000-0 20267-3 0 9990 2 44331 051.6369 345.4242 0004147 161.6680 198.4463 15.61383217079003 Prox-1 1 44339U 19036A 20310.67044294 .00001072 00000-0 20400-3 0 9993 2 44339 024.0008 303.1932 0010154 252.9962 106.9416 14.53195108072672 Oculus-ASR 1 44348U 19036K 20310.70037687 .00014909 00000-0 21713-3 0 9996 2 44348 028.5130 175.2813 0357150 017.2860 343.9553 15.05082941075083 Armadillo 1 44352U 19036P 20310.87332540 .00022054 00000-0 31492-3 0 9990 2 44352 028.5279 165.4953 0340314 032.0418 330.0394 15.09010689075147 NO-104 1 44354U 19036R 20310.86310769 .00015555 00000-0 22231-3 0 9999 2 44354 028.5277 170.1674 0353498 024.1447 337.5287 15.06235577075146 NO-103 1 44355U 19036S 20310.85225326 .00033483 00000-0 44345-3 0 9993 2 44355 028.5264 152.4245 0322113 052.9453 310.0151 15.14302783075325 CP9 1 44360U 19036X 20310.64878862 .00061081 -48667-5 63951-3 0 9991 2 44360 028.5083 127.0626 0290792 095.3210 268.0629 15.25001305075432 Move-IIb 1 44398U 19038N 20310.93396051 .00002526 00000-0 14702-3 0 9993 2 44398 097.5527 270.5156 0025496 004.0843 356.0589 15.12691082073962 SONATE 1 44400U 19038Q 20310.87798904 .00001297 00000-0 78613-4 0 9999 2 44400 097.5563 270.4590 0025384 003.3141 356.8254 15.12117018073943 BeeSat 9 1 44412U 19038AC 20310.85646853 .00001492 00000-0 88873-4 0 9991 2 44412 097.5573 270.5767 0022931 008.8509 351.3121 15.12555691073640 JAISAT-1 1 44419U 19038F 20310.63316848 .00001566 00000-0 91927-4 0 9998 2 44419 97.5574 270.7275 0021734 8.6868 351.4735 15.13039540 73946 LightSail-2 1 44420U 19036AC 20310.61748032 .00008457 00000-0 17914-2 0 9998 2 44420 024.0071 294.9477 0011145 222.3188 137.6445 14.57123139070902 Taurus 1 1 44530U 19059C 20310.79373767 .00000346 00000-0 11021-3 0 9996 2 44530 98.5639 33.2126 0016035 99.6189 260.6776 14.45743964 60762 Duchifat 3 1 44854U 19089C 20310.49943100 .00000634 00000-0 57534-4 0 9999 2 44854 36.9679 344.7383 0007114 123.0859 237.0570 14.99182663 49477 OPS-SAT 1 44878U 19092F 20310.45913686 .00001553 00000-0 84771-4 0 9995 2 44878 097.4702 131.3971 0012915 223.6768 136.3444 15.15760282048890 TO-108 1 44881U 19093C 20310.83069942 .00000054 00000-0 13773-4 0 9998 2 44881 97.9474 25.8388 0013827 301.5689 58.4160 14.81415106 47628 FloripaSat 1 1 44885U 19093G 20310.83435693 .00000373 00000-0 53577-4 0 9992 2 44885 97.9480 26.1308 0013579 311.8726 48.1310 14.82110004 47640 RS-44 1 44909U 19096E 20310.63389145 .00000032 00000-0 89067-4 0 9995 2 44909 082.5203 261.4918 0216250 256.4043 101.2890 12.79708439040240 SwampSat-2 1 45115U 19071E 20310.66170659 .00018714 00000-0 49124-3 0 9994 2 45115 51.6417 37.0962 0011063 210.7913 149.2423 15.38610405 42838 HO-107 1 45119U 19071J 20310.65386580 .00003168 00000-0 10559-3 0 9996 2 45119 51.6437 40.7315 0011869 200.7428 159.3074 15.34140837 42793 Phoenix 1 45258U 98067RB 20310.44762565 .00005648 00000-0 98761-4 0 9997 2 45258 051.6422 006.1060 0005828 138.4302 221.7131 15.52269153040362 AztechSat-1 1 45261U 98067RE 20310.59515960 .00012290 00000-0 18947-3 0 9990 2 45261 051.6413 003.3530 0006475 156.7765 203.3520 15.54569590040449 QARMAN 1 45263U 98067RG 20310.57743127 .00010709 00000-0 17290-3 0 9991 2 45263 051.6417 004.7313 0006350 153.0521 207.0801 15.53445134040451 Quetzal 1 1 45598U 98067RL 20310.60680038 .00009436 00000-0 15921-3 0 9991 2 45598 051.6427 006.4306 0002115 261.2179 098.8572 15.52381571029709 BY70-2 1 45857U 20042B 20310.83891829 .00001290 00000-0 19291-3 0 9998 2 45857 98.0046 22.7925 0010809 206.6386 153.4264 14.76410543 18553 UPMSat 2 1 46276U 20061E 20310.83649604 .00000614 00000-0 35266-4 0 9997 2 46276 097.4579 022.8425 0002895 076.0309 284.1246 15.16105471009658 AmicalSat 1 46287U 20061R 20310.76211851 .00000920 00000-0 60469-4 0 9993 2 46287 97.5131 22.6834 0003912 127.3825 232.7761 15.10017681 9583 /EX
